TimePST,TemperatureF,Dew PointF,Humidity,Sea Level PressureIn,VisibilityMPH,Wind Direction,Wind SpeedMPH,Gust SpeedMPH,PrecipitationIn,Events,Conditions,WindDirDegrees,DateUTC
12:53 AM,12.9,1.9,62,30.25,10.0,Calm,Calm,-,N/A,,Scattered Clouds,0,2013-12-07 08:53:00
1:53 AM,9.0,1.9,73,30.26,10.0,WNW,4.6,-,N/A,,Partly Cloudy,300,2013-12-07 09:53:00
2:53 AM,10.0,1.0,67,30.27,10.0,Calm,Calm,-,N/A,,Clear,0,2013-12-07 10:53:00
3:53 AM,6.1,-2.0,69,30.27,10.0,West,3.5,-,N/A,,Clear,270,2013-12-07 11:53:00
4:53 AM,7.0,-2.0,67,30.28,10.0,NNW,5.8,-,N/A,,Clear,340,2013-12-07 12:53:00
5:53 AM,3.9,-4.0,70,30.29,10.0,WNW,4.6,-,N/A,,Clear,290,2013-12-07 13:53:00
6:53 AM,3.0,-4.0,73,30.32,10.0,Variable,3.5,-,N/A,,Clear,0,2013-12-07 14:53:00
7:53 AM,1.9,-5.1,72,30.34,10.0,Calm,Calm,-,N/A,,Clear,0,2013-12-07 15:53:00
8:53 AM,10.0,-0.0,64,30.35,10.0,Calm,Calm,-,N/A,,Clear,0,2013-12-07 16:53:00
9:53 AM,12.9,1.0,59,30.36,10.0,Calm,Calm,-,N/A,,Clear,0,2013-12-07 17:53:00
10:53 AM,17.1,1.0,50,30.36,10.0,Calm,Calm,-,N/A,,Clear,0,2013-12-07 18:53:00
11:53 AM,19.9,-2.0,38,30.35,10.0,Calm,Calm,-,N/A,,Clear,0,2013-12-07 19:53:00
12:53 PM,21.0,-4.0,33,30.33,10.0,Calm,Calm,-,N/A,,Clear,0,2013-12-07 20:53:00
1:53 PM,21.9,-5.1,30,30.33,10.0,Calm,Calm,-,N/A,,Clear,0,2013-12-07 21:53:00
2:53 PM,21.9,-6.0,29,30.33,10.0,Calm,Calm,-,N/A,,Clear,0,2013-12-07 22:53:00
3:53 PM,19.9,-6.0,32,30.35,10.0,Calm,Calm,-,N/A,,Clear,0,2013-12-07 23:53:00
4:53 PM,12.0,-2.9,51,30.37,10.0,East,6.9,-,N/A,,Clear,80,2013-12-08 00:53:00
5:53 PM,10.0,-4.0,53,30.39,10.0,East,6.9,-,N/A,,Clear,80,2013-12-08 01:53:00
6:53 PM,8.1,-2.9,61,30.41,10.0,NE,5.8,-,N/A,,Clear,50,2013-12-08 02:53:00
7:53 PM,8.1,-2.9,61,30.42,10.0,Calm,Calm,-,N/A,,Clear,0,2013-12-08 03:53:00
8:53 PM,5.0,-2.9,70,30.42,10.0,Calm,Calm,-,N/A,,Clear,0,2013-12-08 04:53:00
9:53 PM,3.0,-4.0,73,30.42,10.0,Calm,Calm,-,N/A,,Clear,0,2013-12-08 05:53:00
10:53 PM,5.0,-4.0,66,30.42,10.0,Calm,Calm,-,N/A,,Clear,0,2013-12-08 06:53:00
11:53 PM,3.0,-5.1,69,30.42,10.0,Calm,Calm,-,N/A,,Clear,0,2013-12-08 07:53:00